Regional Weather Roundup
Issued by NWS

Home | Current Version | Previous Version | Graphics & Text | Print | Product List | Glossary On
Versions: 1 2 3 4 5 6 7 8 9 10 11 12 13 14 15 16 17 18 19 20 21 22 23 24 25 26 27 28 29 30 31 32 33 34 35 36 37 38 39 40 41 42 43 44 45 46 47 48 49 50
197
ASUS44 KJAN 301910
RWRMS

MISSISSIPPI HOURLY WEATHER ROUNDUP
NATIONAL WEATHER SERVICE JACKSON MS
200 PM CDT TUE SEP 30 2014

NOTE: "FAIR: INDICATES FEW OR NO CLOUDS BELOW 12,000 FEET WITH NO
SIGNIFICANT WEATHER AND/OR OBSTRUCTIONS TO VISIBILITY.

MSZ001>002-007>008-010>013-018>021-025>028-034>036-302000-
NORTHWEST MISSISSIPPI

CITY           SKY/WX    TMP DP  RH WIND       PRES   REMARKS
CLARKSDALE     FAIR      86  59  39 E5        29.89F
CLEVELAND      FAIR      88  57  34 CALM      29.87F
GREENWOOD      MOSUNNY   87  63  44 S3        29.88F
GREENVILLE     MOSUNNY   89  58  34 VRB5      29.87F
GRENADA        FAIR      88  55  33 SE3       29.89F
OLIVE BRANCH   PTSUNNY   84  63  48 NE5       29.91F
OXFORD         PTSUNNY   82  61  47 N3        29.92F
TUNICA         CLEAR     84  57  39 SE5       29.90F
$$

MSZ003>006-009-014>017-022>024-029>033-037>039-302000-
NORTHEAST MISSISSIPPI

CITY           SKY/WX    TMP DP  RH WIND       PRES   REMARKS
COLUMBUS AFB   MOSUNNY   85  62  45 VRB3      29.90F
CORINTH        FAIR      84  59  42 E6        29.90F
GOLDN TRIANGLE PTSUNNY   84  63  48 S5        29.90F
STARKVILLE     MOCLDY    84  61  45 CALM      29.90F
TUPELO         MOSUNNY   86  56  35 SE6       29.90F
$$

MSZ040-058-302000-
CENTRAL MISSISSIPPI

CITY           SKY/WX    TMP DP  RH WIND       PRES   REMARKS
JACKSON INTL   PTSUNNY   86  63  45 E8        29.89F
JACKSON HAWKNS CLOUDY    88  65  46 SE8       29.89F HX  90
MERIDIAN KEY   MOSUNNY   86  61  42 CALM      29.90F
MERIDIAN NAS   MOSUNNY   86  59  39 CALM      29.90F
RAYMOND        FAIR      90  84  84 S8        29.88F HX 115
VICKSBURG      PTSUNNY   87  63  44 E3        29.88F
$$

MSZ059>079-302000-
SOUTH MISSISSIPPI

CITY           SKY/WX    TMP DP  RH WIND       PRES   REMARKS
BROOKHAVEN     FAIR      88  68  51 CALM      29.90F HX  91
COLUMBIA       MOCLDY    84  68  58 VRB6      29.87F
HATTIESBURG    MOSUNNY   83  68  60 E6        29.90F
MCCOMB         PTSUNNY   87  65  47 N5        29.88F
NATCHEZ        PTSUNNY   86  70  58 SE3       29.88F HX  90
PINE BELT      PTSUNNY   82  68  61 E8        29.92F
$$

MSZ080>082-302000-
COASTAL MISSISSIPPI

CITY           SKY/WX    TMP DP  RH WIND       PRES   REMARKS
BAY ST LOUIS   MOSUNNY   84  70  61 S7        29.88F
BILOXI         CLOUDY    83  71  67 VRB7      29.88F
PASCAGOULA     PTSUNNY   81  70  69 N7        29.89F
GULFPORT       MOSUNNY   83  73  72 SE12      29.87F
$$



USA.gov is the U.S. government's official web portal to all federal, state and local government web resources and services.